Year,Month,Day,Hour,Minute,Value (Times are PST for temperature in C)
2013,07,10,10,15,18.00
2013,07,10,10,16,18.10
2013,07,10,10,17,18.20
2013,07,10,10,18,18.30
2013,07,10,10,19,18.50
2013,07,10,10,20,18.60
2013,07,10,10,21,18.70
2013,07,10,10,22,18.80
2013,07,10,10,23,18.90
2013,07,10,10,24,19.00
2013,07,10,10,25,19.10
2013,07,10,10,26,19.10
2013,07,10,10,27,19.10
2013,07,10,10,28,19.10
2013,07,10,10,29,19.10
2013,07,10,10,30,19.10
2013,07,10,10,31,19.10
2013,07,10,10,32,19.10
2013,07,10,10,33,19.10
2013,07,10,10,34,19.10
2013,07,10,10,35,19.10
2013,07,10,10,36,19.10
2013,07,10,10,37,19.10
2013,07,10,10,38,19.10
2013,07,10,10,39,19.20
2013,07,10,10,40,19.30
2013,07,10,10,41,19.30
2013,07,10,10,42,19.30
2013,07,10,10,43,19.30
2013,07,10,10,44,19.30
2013,07,10,10,45,19.30
2013,07,10,10,46,19.20
2013,07,10,10,47,19.20
2013,07,10,10,48,19.20
2013,07,10,10,49,19.30
2013,07,10,10,50,19.30
2013,07,10,10,51,19.20
2013,07,10,10,52,19.20
2013,07,10,10,53,19.20
2013,07,10,10,54,19.20
2013,07,10,10,55,19.30
2013,07,10,10,56,19.40
2013,07,10,10,57,19.50
2013,07,10,10,58,19.60
2013,07,10,10,59,19.80
2013,07,10,11,00,19.90
2013,07,10,11,01,20.00
2013,07,10,11,02,20.10
2013,07,10,11,03,20.00
2013,07,10,11,04,20.10
2013,07,10,11,05,20.10
2013,07,10,11,06,20.10
2013,07,10,11,07,20.10
2013,07,10,11,08,20.00
2013,07,10,11,09,19.90
2013,07,10,11,10,19.90
2013,07,10,11,11,19.80
2013,07,10,11,12,19.70
2013,07,10,11,13,19.70
2013,07,10,11,14,19.70
2013,07,10,11,15,19.70
2013,07,10,11,16,19.60
2013,07,10,11,17,19.50
2013,07,10,11,18,19.50
2013,07,10,11,19,19.50
2013,07,10,11,20,19.50
2013,07,10,11,21,19.50
2013,07,10,11,22,19.60
2013,07,10,11,23,19.70
2013,07,10,11,24,19.70
2013,07,10,11,25,19.80
2013,07,10,11,26,19.80
2013,07,10,11,27,19.70
2013,07,10,11,28,19.70
2013,07,10,11,29,19.70
2013,07,10,11,30,19.80
2013,07,10,11,31,19.80
2013,07,10,11,32,19.70
2013,07,10,11,33,19.70
2013,07,10,11,34,19.60
2013,07,10,11,35,19.50
2013,07,10,11,36,19.50
2013,07,10,11,37,19.40
2013,07,10,11,38,19.40
2013,07,10,11,39,19.40
2013,07,10,11,40,19.50
2013,07,10,11,41,19.60
2013,07,10,11,42,19.60
2013,07,10,11,43,19.50
2013,07,10,11,44,19.50
2013,07,10,11,45,19.50
2013,07,10,11,46,19.60
2013,07,10,11,47,19.70
2013,07,10,11,48,19.80
2013,07,10,11,49,19.90
2013,07,10,11,50,20.00
2013,07,10,11,51,20.10
2013,07,10,11,52,20.10
2013,07,10,11,53,20.20
2013,07,10,11,54,20.10
2013,07,10,11,55,20.20
2013,07,10,11,56,20.20
2013,07,10,11,57,20.20
2013,07,10,11,58,20.20
2013,07,10,11,59,20.10
2013,07,10,12,00,20.10
2013,07,10,12,01,20.20
2013,07,10,12,02,20.30
2013,07,10,12,03,20.30
2013,07,10,12,04,20.30
2013,07,10,12,05,20.10
2013,07,10,12,06,20.00
2013,07,10,12,07,19.90
2013,07,10,12,08,19.70
2013,07,10,12,09,19.60
2013,07,10,12,10,19.50
2013,07,10,12,11,19.40
2013,07,10,12,12,19.40
2013,07,10,12,13,19.30
2013,07,10,12,14,19.30
2013,07,10,12,15,19.40
2013,07,10,12,16,19.40
2013,07,10,12,17,19.40
2013,07,10,12,18,19.40
2013,07,10,12,19,19.50
2013,07,10,12,20,19.60
2013,07,10,12,21,19.70
2013,07,10,12,22,19.70
2013,07,10,12,23,19.90
2013,07,10,12,24,20.00
2013,07,10,12,25,20.20
2013,07,10,12,26,20.30
2013,07,10,12,27,20.40
2013,07,10,12,28,20.50
2013,07,10,12,29,20.50
2013,07,10,12,30,20.60
2013,07,10,12,31,20.60
2013,07,10,12,32,20.80
2013,07,10,12,33,20.90
2013,07,10,12,34,20.90
2013,07,10,12,35,21.00
2013,07,10,12,36,21.00
2013,07,10,12,37,21.00
2013,07,10,12,38,21.00
2013,07,10,12,39,21.00
2013,07,10,12,40,21.00
2013,07,10,12,41,21.00
2013,07,10,12,42,21.00
2013,07,10,12,43,21.00
2013,07,10,12,44,21.00
2013,07,10,12,45,21.10
2013,07,10,12,46,21.10
2013,07,10,12,47,21.10
2013,07,10,12,48,21.10
2013,07,10,12,49,21.10
2013,07,10,12,50,21.00
2013,07,10,12,51,20.90
2013,07,10,12,52,20.90
2013,07,10,12,53,20.90
2013,07,10,12,54,20.70
2013,07,10,12,55,20.60
2013,07,10,12,56,20.60
2013,07,10,12,57,20.60
2013,07,10,12,58,20.50
2013,07,10,12,59,20.50
2013,07,10,13,00,20.50
2013,07,10,13,01,20.50
2013,07,10,13,02,20.50
2013,07,10,13,03,20.40
2013,07,10,13,04,20.40
2013,07,10,13,05,20.40
2013,07,10,13,06,20.40
2013,07,10,13,07,20.50
2013,07,10,13,08,20.60
2013,07,10,13,09,20.60
2013,07,10,13,10,20.60
2013,07,10,13,11,20.60
2013,07,10,13,12,20.70
2013,07,10,13,13,20.70
2013,07,10,13,14,20.70
2013,07,10,13,15,20.70
2013,07,10,13,16,20.70
2013,07,10,13,17,20.70
2013,07,10,13,18,20.70
2013,07,10,13,19,20.70
2013,07,10,13,20,20.60
2013,07,10,13,21,20.60
2013,07,10,13,22,20.60
2013,07,10,13,23,20.50
2013,07,10,13,24,20.50
2013,07,10,13,25,20.40
2013,07,10,13,26,20.30
2013,07,10,13,27,20.30
2013,07,10,13,28,20.30
2013,07,10,13,29,20.30
2013,07,10,13,30,20.30
2013,07,10,13,31,20.30
2013,07,10,13,32,20.30
2013,07,10,13,33,20.40
2013,07,10,13,34,20.50
2013,07,10,13,35,20.70
2013,07,10,13,36,20.90
2013,07,10,13,37,21.00
2013,07,10,13,38,20.90
2013,07,10,13,39,20.90
2013,07,10,13,40,20.80
2013,07,10,13,41,20.80
2013,07,10,13,42,20.80
2013,07,10,13,43,20.70
2013,07,10,13,44,20.70
2013,07,10,13,45,20.60
2013,07,10,13,46,20.60
2013,07,10,13,47,20.60
2013,07,10,13,48,20.50
2013,07,10,13,49,20.40
2013,07,10,13,50,20.40
2013,07,10,13,51,20.40
2013,07,10,13,52,20.30
2013,07,10,13,53,20.20
2013,07,10,13,54,20.20
2013,07,10,13,55,20.10
2013,07,10,13,56,20.10
2013,07,10,13,57,20.20
2013,07,10,13,58,20.20
2013,07,10,13,59,20.20
2013,07,10,14,00,20.20
2013,07,10,14,01,20.20
2013,07,10,14,02,20.20
2013,07,10,14,03,20.20
2013,07,10,14,04,20.20
2013,07,10,14,05,20.20
2013,07,10,14,06,20.20
2013,07,10,14,07,20.20
2013,07,10,14,08,20.20
2013,07,10,14,09,20.20
2013,07,10,14,10,20.20
2013,07,10,14,11,20.20
2013,07,10,14,12,20.20
2013,07,10,14,13,20.20
2013,07,10,14,14,20.20
2013,07,10,14,15,20.20
2013,07,10,14,16,20.20
2013,07,10,14,17,20.10
2013,07,10,14,18,20.00
2013,07,10,14,19,19.90
2013,07,10,14,20,19.90
2013,07,10,14,21,19.90
2013,07,10,14,22,19.90
2013,07,10,14,23,19.90
2013,07,10,14,24,19.90
2013,07,10,14,25,19.90
2013,07,10,14,26,19.80
2013,07,10,14,27,19.80
2013,07,10,14,28,19.80
2013,07,10,14,29,19.80
2013,07,10,14,30,19.90
2013,07,10,14,31,19.90
2013,07,10,14,32,19.90
2013,07,10,14,33,20.00
2013,07,10,14,34,20.10
2013,07,10,14,35,20.10
2013,07,10,14,36,20.20
2013,07,10,14,37,20.20
2013,07,10,14,38,20.20
2013,07,10,14,39,20.20
2013,07,10,14,40,20.20
2013,07,10,14,41,20.10
2013,07,10,14,42,20.20
2013,07,10,14,43,20.30
2013,07,10,14,44,20.40
2013,07,10,14,45,20.40
2013,07,10,14,46,20.40
2013,07,10,14,47,20.40
2013,07,10,14,48,20.40
2013,07,10,14,49,20.40
2013,07,10,14,50,20.40
2013,07,10,14,51,20.50
2013,07,10,14,52,20.60
2013,07,10,14,53,20.60
2013,07,10,14,54,20.60
2013,07,10,14,55,20.70
2013,07,10,14,56,20.80
2013,07,10,14,57,20.90
2013,07,10,14,58,21.00
2013,07,10,14,59,21.10
2013,07,10,15,00,21.20
2013,07,10,15,01,21.30
2013,07,10,15,02,21.30
2013,07,10,15,03,21.30
2013,07,10,15,04,21.30
2013,07,10,15,05,21.30
2013,07,10,15,06,21.30
2013,07,10,15,07,21.30
2013,07,10,15,08,21.40
2013,07,10,15,09,21.40
2013,07,10,15,10,21.30
2013,07,10,15,11,21.30
2013,07,10,15,12,21.30
2013,07,10,15,13,21.30
2013,07,10,15,14,21.50
2013,07,10,15,15,21.60
2013,07,10,15,16,21.50
2013,07,10,15,17,21.40
2013,07,10,15,18,21.30
2013,07,10,15,19,21.30
2013,07,10,15,20,21.30
2013,07,10,15,21,21.40
2013,07,10,15,22,21.40
2013,07,10,15,23,21.50
2013,07,10,15,24,21.50
2013,07,10,15,25,21.40
2013,07,10,15,26,21.40
2013,07,10,15,27,21.40
2013,07,10,15,28,21.30
2013,07,10,15,29,21.30
2013,07,10,15,30,21.30
2013,07,10,15,31,21.30
2013,07,10,15,32,21.20
2013,07,10,15,33,21.10
2013,07,10,15,34,21.10
2013,07,10,15,35,21.00
2013,07,10,15,36,21.00
2013,07,10,15,37,21.00
2013,07,10,15,38,20.90
2013,07,10,15,39,20.80
2013,07,10,15,40,20.70
2013,07,10,15,41,20.70
2013,07,10,15,42,20.60
2013,07,10,15,43,20.60
2013,07,10,15,44,20.60
2013,07,10,15,45,20.60
2013,07,10,15,46,20.50
2013,07,10,15,47,20.50
2013,07,10,15,48,20.50
2013,07,10,15,49,20.50
2013,07,10,15,50,20.40
2013,07,10,15,51,20.40
2013,07,10,15,52,20.30
2013,07,10,15,53,20.30
2013,07,10,15,54,20.30
2013,07,10,15,55,20.20
2013,07,10,15,56,20.20
2013,07,10,15,57,20.20
2013,07,10,15,58,20.10
2013,07,10,15,59,20.00
2013,07,10,16,00,19.90
2013,07,10,16,01,19.90
2013,07,10,16,02,19.90
2013,07,10,16,03,20.00
2013,07,10,16,04,20.10
2013,07,10,16,05,20.20
2013,07,10,16,06,20.20
2013,07,10,16,07,20.20
2013,07,10,16,08,20.20
2013,07,10,16,09,20.20
2013,07,10,16,10,20.20
2013,07,10,16,11,20.30
2013,07,10,16,12,20.30
2013,07,10,16,13,20.30
2013,07,10,16,14,20.30
2013,07,10,16,15,20.20
2013,07,10,16,16,20.20
2013,07,10,16,17,20.20
2013,07,10,16,18,20.20
2013,07,10,16,19,20.20
2013,07,10,16,20,20.20
2013,07,10,16,21,20.20
2013,07,10,16,22,20.20
2013,07,10,16,23,20.10
2013,07,10,16,24,20.10
2013,07,10,16,25,20.10
2013,07,10,16,26,20.10
2013,07,10,16,27,20.00
2013,07,10,16,28,19.90
2013,07,10,16,29,19.90
2013,07,10,16,30,19.90
2013,07,10,16,31,19.80
2013,07,10,16,32,19.80
2013,07,10,16,33,19.70
2013,07,10,16,34,19.60
2013,07,10,16,35,19.60
2013,07,10,16,36,19.50
2013,07,10,16,37,19.50
2013,07,10,16,38,19.50
2013,07,10,16,39,19.50
2013,07,10,16,40,19.70
2013,07,10,16,41,19.80
2013,07,10,16,42,19.90
2013,07,10,16,43,20.00
2013,07,10,16,44,20.10
2013,07,10,16,45,20.20
2013,07,10,16,46,20.30
2013,07,10,16,47,20.40
2013,07,10,16,48,20.40
2013,07,10,16,49,20.50
2013,07,10,16,50,20.50
2013,07,10,16,51,20.40
2013,07,10,16,52,20.30
2013,07,10,16,53,20.20
2013,07,10,16,54,20.20
2013,07,10,16,55,20.20
2013,07,10,16,56,20.10
2013,07,10,16,57,20.10
2013,07,10,16,58,20.10
2013,07,10,16,59,20.10
2013,07,10,17,00,20.10
2013,07,10,17,01,20.20
2013,07,10,17,02,20.20
2013,07,10,17,03,20.20
2013,07,10,17,04,20.10
2013,07,10,17,05,20.10
2013,07,10,17,06,20.00
2013,07,10,17,07,19.90
2013,07,10,17,08,19.90
2013,07,10,17,09,19.90
2013,07,10,17,10,19.90
2013,07,10,17,11,19.80
2013,07,10,17,12,19.80
2013,07,10,17,13,19.70
2013,07,10,17,14,19.70
2013,07,10,17,15,19.70
2013,07,10,17,16,19.70
2013,07,10,17,17,19.70
2013,07,10,17,18,19.70
2013,07,10,17,19,19.70
2013,07,10,17,20,19.70
2013,07,10,17,21,19.70
2013,07,10,17,22,19.80
2013,07,10,17,23,19.80
2013,07,10,17,24,19.80
2013,07,10,17,25,19.80
2013,07,10,17,26,19.80
2013,07,10,17,27,19.80
2013,07,10,17,28,19.90
2013,07,10,17,29,19.90
2013,07,10,17,30,19.90
2013,07,10,17,31,19.90
2013,07,10,17,32,19.90
2013,07,10,17,33,19.90
2013,07,10,17,34,19.90
2013,07,10,17,35,19.90
2013,07,10,17,36,19.90
2013,07,10,17,37,19.90
2013,07,10,17,38,19.90
2013,07,10,17,39,19.90
2013,07,10,17,40,19.90
2013,07,10,17,41,19.90
2013,07,10,17,42,19.80
2013,07,10,17,43,19.90
2013,07,10,17,44,19.80
2013,07,10,17,45,19.90
2013,07,10,17,46,19.80
2013,07,10,17,47,19.80
2013,07,10,17,48,19.80
2013,07,10,17,49,19.90
2013,07,10,17,50,19.90
2013,07,10,17,51,19.90
2013,07,10,17,52,20.00
2013,07,10,17,53,20.10
2013,07,10,17,54,20.10
2013,07,10,17,55,20.20
2013,07,10,17,56,20.20
2013,07,10,17,57,20.20
2013,07,10,17,58,20.30
2013,07,10,17,59,20.30
2013,07,10,18,00,20.30
2013,07,10,18,01,20.20
2013,07,10,18,02,20.20
2013,07,10,18,03,20.20
2013,07,10,18,04,20.10
2013,07,10,18,05,20.10
2013,07,10,18,06,20.10
2013,07,10,18,07,20.10
2013,07,10,18,08,20.10
2013,07,10,18,09,20.10
2013,07,10,18,10,20.10
2013,07,10,18,11,20.20
2013,07,10,18,12,20.30
2013,07,10,18,13,20.50
2013,07,10,18,14,20.50
2013,07,10,18,15,20.60
2013,07,10,18,16,20.70
2013,07,10,18,17,20.90
2013,07,10,18,18,21.00
2013,07,10,18,19,21.10
2013,07,10,18,20,21.00
2013,07,10,18,21,21.00
2013,07,10,18,22,20.90
2013,07,10,18,23,20.80
2013,07,10,18,24,20.70
2013,07,10,18,25,20.70
2013,07,10,18,26,20.50
2013,07,10,18,27,20.50
2013,07,10,18,28,20.50
2013,07,10,18,29,20.50
2013,07,10,18,30,20.40
2013,07,10,18,31,20.40
2013,07,10,18,32,20.40
2013,07,10,18,33,20.30
2013,07,10,18,34,20.30
2013,07,10,18,35,20.20
2013,07,10,18,36,20.20
2013,07,10,18,37,20.30
2013,07,10,18,38,20.40
2013,07,10,18,39,20.40
2013,07,10,18,40,20.40
2013,07,10,18,41,20.40
2013,07,10,18,42,20.50
2013,07,10,18,43,20.50
2013,07,10,18,44,20.60
2013,07,10,18,45,20.60
2013,07,10,18,46,20.60
2013,07,10,18,47,20.60
2013,07,10,18,48,20.50
2013,07,10,18,49,20.50
2013,07,10,18,50,20.40
2013,07,10,18,51,20.40
2013,07,10,18,52,20.40
2013,07,10,18,53,20.40
2013,07,10,18,54,20.40
2013,07,10,18,55,20.40
2013,07,10,18,56,20.30
2013,07,10,18,57,20.30
2013,07,10,18,58,20.30
2013,07,10,18,59,20.30
2013,07,10,19,00,20.20
2013,07,10,19,01,20.20
2013,07,10,19,02,20.20
2013,07,10,19,03,20.20
2013,07,10,19,04,20.20
2013,07,10,19,05,20.20
2013,07,10,19,06,20.20
2013,07,10,19,07,20.20
2013,07,10,19,08,20.20
2013,07,10,19,09,20.30
2013,07,10,19,10,20.30
2013,07,10,19,11,20.30
2013,07,10,19,12,20.40
2013,07,10,19,13,20.40
2013,07,10,19,14,20.50
2013,07,10,19,15,20.50
2013,07,10,19,16,20.60
2013,07,10,19,17,20.60
2013,07,10,19,18,20.60
2013,07,10,19,19,20.60
2013,07,10,19,20,20.60
2013,07,10,19,21,20.60
2013,07,10,19,22,20.60
2013,07,10,19,23,20.60
2013,07,10,19,24,20.70
2013,07,10,19,25,20.70
2013,07,10,19,26,20.70
2013,07,10,19,27,20.70
2013,07,10,19,28,20.70
2013,07,10,19,29,20.70
2013,07,10,19,30,20.70
2013,07,10,19,31,20.80
2013,07,10,19,32,20.80
2013,07,10,19,33,20.70
2013,07,10,19,34,20.70
2013,07,10,19,35,20.70
2013,07,10,19,36,20.70
2013,07,10,19,37,20.70
2013,07,10,19,38,20.60
2013,07,10,19,39,20.60
2013,07,10,19,40,20.60
2013,07,10,19,41,20.60
2013,07,10,19,42,20.50
2013,07,10,19,43,20.50
2013,07,10,19,44,20.60
2013,07,10,19,45,20.60
2013,07,10,19,46,20.60
2013,07,10,19,47,20.60
2013,07,10,19,48,20.50
2013,07,10,19,49,20.30
2013,07,10,19,50,20.20
2013,07,10,19,51,20.20
2013,07,10,19,52,20.20
2013,07,10,19,53,20.20
2013,07,10,19,54,20.20
2013,07,10,19,55,20.10
2013,07,10,19,56,20.10
2013,07,10,19,57,20.00
2013,07,10,19,58,19.90
2013,07,10,19,59,19.90
2013,07,10,20,00,19.90
2013,07,10,20,01,19.90
2013,07,10,20,02,19.90
2013,07,10,20,03,19.90
2013,07,10,20,04,19.90
2013,07,10,20,05,19.90
2013,07,10,20,06,19.90
2013,07,10,20,07,19.80
2013,07,10,20,08,19.70
2013,07,10,20,09,19.60
2013,07,10,20,10,19.50
2013,07,10,20,11,19.40
2013,07,10,20,12,19.40
2013,07,10,20,13,19.30
2013,07,10,20,14,19.20
2013,07,10,20,15,19.10
2013,07,10,20,16,19.10
2013,07,10,20,17,19.10
2013,07,10,20,18,19.10
2013,07,10,20,19,19.00
2013,07,10,20,20,18.90
2013,07,10,20,21,18.90
2013,07,10,20,22,18.90
2013,07,10,20,23,18.90
2013,07,10,20,24,18.90
2013,07,10,20,25,18.90
2013,07,10,20,26,18.80
2013,07,10,20,27,18.70
2013,07,10,20,28,18.70
2013,07,10,20,29,18.70
2013,07,10,20,30,18.70
2013,07,10,20,31,18.70
2013,07,10,20,32,18.70
2013,07,10,20,33,18.70
2013,07,10,20,34,18.70
2013,07,10,20,35,18.70
2013,07,10,20,36,18.70
2013,07,10,20,37,18.70
2013,07,10,20,38,18.70
2013,07,10,20,39,18.70
2013,07,10,20,40,18.70
2013,07,10,20,41,18.70
